SCP
0 0 0 0 0 0 -0 -0 -0 0 0 0 0 0 0 0 0 0 0 1 1 1 1 1 1 1 1 1 1 1 1 1 1 1 1 1 0 0 0 0 0 0 0 0
0 0 0 0 0 0 -0 -0 0 0 0 0 0 0 0 0 0 0 0 1 1 1 1 1 1 1 1 1 1 1 1 1 1 1 1 1 0 0 0 0 0 0 0 0
0 0 0 0 0 0 -0 -0 0 0 0 0 0 0 0 0 0 0 1 1 1 1 1 1 1 1 1 1 1 1 1 1 1 1 1 1 0 0 0 0 0 0 0 0
0 0 0 0 0 0 0 0 0 0 0 0 0 0 0 0 0 0 0 1 1 1 1 1 1 1 1 1 1 1 1 1 1 1 1 1 0 0 0 0 0 0 0 0
0 0 0 0 0 0 0 0 0 0 0 0 0 0 0 0 0 0 0 0 0 0 0 0 0 1 0 1 1 1 1 1 1 1 1 0 0 0 0 0 0 0 0 0
0 0 0 0 0 0 0 0 0 0 0 0 0 0 0 0 0 0 0 0 0 0 0 0 0 0 0 0 0 1 1 1 1 0 0 0 0 0 0 0 0 0 0 0
0 0 0 0 0 0 0 0 0 0 0 0 0 0 0 0 0 0 0 0 0 0 0 0 0 0 0 0 0 0 0 0 0 0 0 0 0 0 0 0 0 0 0 0
0 0 0 0 0 0 0 0 0 -0 -0 0 0 0 0 0 0 0 0 0 0 0 0 0 0 0 0 0 0 0 0 0 0 0 0 0 0 0 0 0 0 0 0 0
0 0 0 0 0 0 0 0 0 0 -0 0 0 0 0 0 0 0 0 0 0 0 0 0 0 0 0 0 0 0 0 0 0 0 0 0 0 0 0 0 0 0 0 0
0 0 0 0 0 0 0 0 0 0 -0 0 0 0 0 0 0 0 0 0 0 0 0 0 0 0 0 0 0 0 0 0 0 0 0 0 0 0 0 0 0 0 0 0
0 0 0 0 0 0 0 0 0 0 -0 -0 0 0 0 0 0 0 0 0 0 0 0 0 0 0 0 0 0 0 0 0 0 0 0 0 0 0 0 0 0 0 0 0
0 0 0 0 0 0 0 0 0 0 -0 -0 0 0 0 0 0 0 0 0 0 0 0 0 0 0 0 0 0 0 0 0 0 0 0 0 0 0 0 0 0 0 0 0
0 0 0 0 0 0 0 0 0 0 0 0 0 0 0 0 0 0 0 0 0 0 0 0 0 0 0 0 0 0 0 0 0 0 0 0 0 0 0 0 0 0 0 0
0 0 0 0 0 0 0 0 0 0 0 0 0 0 0 0 0 0 0 0 0 0 0 0 0 0 0 0 0 0 0 0 0 0 0 0 0 0 0 0 0 0 0 0
0 0 0 0 0 0 0 0 0 0 0 0 0 0 0 0 0 0 0 0 0 0 0 0 0 0 0 0 0 0 0 0 0 0 0 0 0 0 0 0 0 0 0 0
0 0 0 0 0 0 0 0 0 0 0 0 0 0 0 0 0 0 0 0 0 0 0 0 0 0 0 0 0 0 0 0 0 0 0 0 0 0 0 0 0 0 0 0
0 0 0 0 0 0 0 0 0 0 0 0 0 0 0 0 0 0 0 0 0 0 0 0 0 0 0 0 0 0 0 0 0 0 0 0 0 0 -0 0 0 0 0 0
0 0 0 0 0 0 0 0 0 0 0 0 0 0 0 0 0 0 0 0 0 0 0 0 0 0 0 0 0 0 0 0 0 0 0 0 0 0 0 0 0 0 0 0
0 0 0 0 0 0 0 0 0 0 0 0 0 0 0 0 0 0 0 0 0 0 0 0 0 0 0 0 0 0 0 0 0 0 0 0 0 0 0 -0 -0 -0 -0 -0
0 0 0 0 0 0 0 0 0 0 0 0 0 0 0 0 0 0 0 0 0 0 0 0 0 0 0 0 0 0 0 0 0 0 0 0 0 0 0 0 0 -0 -0 -0
0 0 0 0 0 0 0 0 0 0 0 0 0 0 0 0 0 0 0 0 0 0 0 0 0 0 0 0 0 0 0 0 0 0 0 0 0 0 0 0 0 -0 -0 -0
-0 0 0 0 0 0 0 0 0 0 0 0 0 0 0 0 0 0 0 0 0 0 0 0 0 0 0 0 0 0 0 0 0 0 0 0 0 0 0 0 0 -0 -0 -0
0 0 0 0 0 0 0 0 0 0 0 0 0 0 0 0 0 0 0 0 0 0 0 0 0 0 0 0 0 0 0 0 0 0 0 0 0 0 0 0 0 0 -0 -0
0 0 0 0 0 0 0 0 0 0 0 0 0 0 0 0 0 0 0 0 0 0 0 0 0 0 0 0 0 0 0 0 0 0 0 0 0 0 -0 0 0 0 0 0
0 0 0 0 0 0 0 0 0 0 0 0 0 0 0 0 0 0 0 0 0 0 0 0 0 0 0 0 -0 -0 -0 0 0 0 0 0 0 0 -0 0 0 0 0 0
0 0 0 0 0 0 0 0 0 0 0 0 0 0 0 0 0 0 0 0 0 0 0 0 0 0 0 0 -0 -0 -0 0 0 0 0 0 -0 -0 -0 -0 0 0 0 0
Wind_Speed
3 3 3 7 7 6 4 4 7 9 5 1 2 2 4 4 3 2 2 2 1 1 2 2 2 4 5 5 6 6 6 5 5 5 4 4 4 3 3 3 4 4 4 4
3 4 9 6 4 5 5 5 7 8 3 3 2 1 2 4 3 3 3 3 3 4 6 6 4 4 4 5 6 6 6 6 6 4 3 3 4 4 4 4 5 6 5 5
6 8 3 2 3 4 5 6 6 5 2 2 3 1 2 3 5 7 7 6 7 7 7 7 7 6 6 6 5 5 6 6 6 7 6 5 4 4 3 5 5 7 7 7
6 6 2 3 5 5 6 7 7 5 1 2 1 1 1 2 5 6 7 8 8 8 8 8 8 8 8 7 5 5 5 6 6 7 8 6 5 5 4 5 5 7 8 9
7 3 3 5 6 5 8 4 3 3 3 0 1 2 3 2 3 5 6 8 8 8 9 9 9 8 8 7 6 5 7 7 7 6 8 8 7 7 7 8 8 8 8 9
7 4 5 6 4 4 3 3 4 4 4 1 2 3 2 2 3 5 6 8 8 8 9 9 9 9 9 9 8 7 8 8 8 8 8 9 11 10 11 10 9 7 6 7
6 6 4 2 2 1 3 5 4 4 3 3 2 3 2 1 5 7 8 8 8 8 9 10 10 10 10 10 9 8 9 10 9 10 10 10 11 11 11 9 9 8 7 7
3 7 4 2 4 3 3 7 6 4 4 3 1 2 1 4 7 8 9 9 9 9 9 10 10 10 9 10 11 10 10 11 11 11 11 11 11 8 9 10 10 9 7 8
5 7 4 2 2 4 3 3 5 6 2 0 1 1 2 5 7 8 9 9 9 9 9 9 10 10 10 11 11 11 11 12 12 13 13 13 13 12 13 12 12 10 8 9
6 5 5 3 2 1 3 5 5 5 5 2 2 3 4 8 8 8 8 8 8 9 9 10 10 10 10 10 11 13 13 14 13 13 12 12 13 13 13 12 13 12 10 10
4 3 5 4 0 2 1 2 4 3 4 5 3 4 2 7 9 11 10 9 9 9 9 9 9 9 10 11 11 12 13 13 13 13 13 14 13 13 13 12 12 11 10 10
3 4 2 5 3 1 2 3 5 4 3 3 3 2 2 4 8 11 12 11 10 10 9 9 10 10 11 11 11 12 12 13 13 13 14 14 13 13 13 12 11 10 10 9
6 5 2 6 5 4 2 0 2 4 4 4 4 3 3 8 10 10 11 11 11 10 10 9 10 10 10 11 11 12 12 12 12 12 13 13 12 12 12 11 9 9 9 9
6 4 5 5 5 3 3 2 2 4 3 3 4 7 7 9 11 11 11 11 11 10 10 10 10 9 10 10 10 11 11 11 11 11 12 12 11 10 10 9 9 8 8 9
5 3 2 3 3 1 1 2 0 2 3 4 4 7 9 10 11 11 11 11 11 11 11 10 9 9 9 9 9 10 10 9 10 11 11 10 9 9 9 8 8 7 7 8
3 3 1 2 1 0 2 4 3 2 2 4 7 4 6 10 10 11 11 12 12 11 11 11 10 10 9 9 9 9 9 8 9 10 9 8 8 8 8 7 6 7 7 6
3 4 3 1 3 2 3 3 2 3 3 3 3 5 12 12 12 12 12 11 11 12 12 11 10 9 8 8 8 8 8 8 8 8 8 7 7 7 6 6 6 6 5 5
7 5 3 1 1 2 3 1 4 5 4 2 4 9 11 11 10 8 9 11 12 12 11 11 9 9 8 7 7 7 7 7 8 7 7 6 6 6 5 6 5 4 3 4
5 7 4 3 1 2 2 1 3 4 2 3 8 11 11 13 10 7 7 9 10 10 10 9 9 8 8 7 7 7 7 7 7 6 5 5 5 5 5 4 4 3 3 3
5 5 5 4 3 4 4 1 3 5 1 3 8 12 13 9 6 5 9 11 11 10 9 9 8 9 8 7 7 7 6 6 5 5 4 4 4 4 4 3 2 2 2 2
2 3 3 3 2 4 2 1 2 1 4 6 8 10 8 4 5 10 13 11 11 11 10 9 9 8 7 7 7 7 6 5 4 4 4 4 3 3 3 3 2 2 3 3
4 4 3 3 2 4 2 2 3 4 3 7 8 8 8 10 13 13 13 13 12 11 10 9 8 7 6 6 8 7 5 4 4 5 4 3 3 3 3 4 3 3 4 4
3 4 5 5 4 2 2 0 1 4 7 6 8 10 13 14 13 13 13 12 11 11 9 8 9 8 6 5 7 7 4 4 5 5 4 4 4 4 3 3 4 3 3 3
2 3 4 2 1 2 3 3 4 5 7 9 11 12 13 14 14 13 12 11 10 9 9 8 9 8 6 5 5 5 4 5 5 4 4 3 4 4 4 3 3 3 2 2
5 4 4 2 1 3 4 4 6 9 12 13 11 10 12 15 14 13 11 11 9 8 7 7 7 7 6 5 4 4 4 5 5 4 3 3 3 3 3 3 2 2 1 1
5 7 7 7 8 6 5 4 7 11 11 13 14 11 10 12 13 12 10 8 9 9 7 7 7 6 6 5 4 3 4 5 5 3 3 2 2 2 2 2 2 2 1 1
Wind_Direction
65 73 248 236 206 210 225 246 268 270 266 277 255 287 326 357 50 56 26 32 62 28 15 52 107 119 128 135 142 152 152 157 150 153 159 159 153 134 114 97 86 89 99 106
25 272 242 232 212 203 219 252 266 285 287 177 175 72 19 29 45 64 56 44 47 43 35 41 65 90 106 120 131 142 148 151 152 156 139 113 112 102 95 85 74 67 73 77
209 244 245 220 247 225 235 215 237 245 329 79 123 35 62 57 61 64 59 55 48 50 50 51 55 63 75 80 95 125 131 136 134 122 105 99 94 87 87 82 73 63 69 72
236 258 245 255 262 207 261 233 219 223 200 267 173 218 237 110 72 64 58 53 48 48 51 52 54 55 57 59 71 97 110 112 116 116 114 122 131 123 103 93 88 74 66 70
247 237 235 254 250 198 232 251 213 198 171 150 348 148 256 142 111 95 78 66 56 52 53 50 47 52 52 50 57 78 95 94 99 107 116 120 116 115 108 97 86 75 64 63
250 252 220 231 249 217 232 46 51 56 81 65 258 153 248 210 164 128 98 76 63 59 58 54 47 48 47 45 50 61 86 84 89 100 107 118 122 122 116 110 102 86 76 69
305 297 259 219 272 328 98 83 23 0 19 252 237 128 215 103 124 127 115 92 73 61 58 54 48 48 47 49 55 62 78 82 85 97 98 104 109 112 110 109 103 97 85 75
269 291 275 219 202 213 185 145 162 200 215 265 343 144 133 101 105 109 105 96 83 69 61 57 51 51 49 52 56 60 73 79 81 86 88 89 93 94 93 90 92 87 84 81
204 259 281 266 231 168 161 185 169 142 153 113 246 145 134 129 119 116 109 99 90 79 69 63 56 52 52 53 55 61 70 75 78 82 84 82 83 87 91 90 87 86 85 84
175 251 289 303 39 16 164 150 105 125 153 207 232 204 196 170 159 136 121 108 97 86 78 70 62 56 56 60 61 64 67 70 72 77 81 85 83 86 87 87 87 85 82 82
149 191 303 349 343 248 111 117 121 129 160 157 199 247 238 183 166 148 131 115 104 93 84 78 74 68 65 65 65 68 70 75 77 80 83 84 84 85 86 84 84 85 82 79
135 128 274 280 272 256 181 173 153 157 199 167 160 250 358 143 137 133 126 116 106 97 89 84 81 76 72 70 70 72 74 76 78 82 84 85 85 85 86 85 83 84 82 78
139 112 22 342 342 354 10 225 162 134 126 156 161 200 82 109 117 121 122 117 110 104 96 89 84 80 77 75 74 75 76 79 80 83 86 86 85 86 86 85 82 81 81 77
117 115 161 206 237 267 307 310 164 136 151 188 190 155 145 132 128 126 123 119 115 109 102 95 88 84 82 80 79 80 79 82 86 86 86 85 83 85 86 84 81 78 78 77
104 125 200 240 255 243 271 317 65 155 185 185 172 153 158 149 138 132 128 126 121 116 110 106 102 96 91 88 85 84 84 84 89 89 87 86 85 84 82 80 78 77 76 77
97 128 113 342 355 211 16 5 22 54 71 106 111 103 128 127 127 134 137 135 130 125 121 117 113 108 102 100 99 95 92 90 92 92 91 91 88 85 83 83 82 79 75 71
117 125 115 290 331 11 341 336 31 63 52 117 146 145 140 139 144 145 143 139 134 130 127 123 120 117 113 109 108 105 102 97 93 94 95 93 91 88 87 91 84 79 75 74
127 110 113 113 30 265 269 358 105 94 51 51 111 135 141 131 121 118 132 136 134 133 131 129 126 120 113 108 106 105 102 98 97 95 95 96 95 92 88 86 83 81 81 80
128 128 119 117 129 296 289 165 138 110 56 88 124 125 118 114 104 98 114 125 129 129 128 126 123 120 117 116 116 110 101 101 101 100 98 99 102 100 94 89 85 83 88 79
74 96 113 126 150 234 254 260 138 103 96 141 137 137 138 134 132 138 132 123 121 119 121 120 118 116 117 120 120 114 110 108 110 112 108 102 104 106 103 100 92 84 96 96
77 66 109 142 187 259 285 156 125 156 226 155 144 144 142 128 128 131 129 122 122 121 122 120 117 117 121 125 120 117 117 120 123 113 106 99 99 109 110 94 80 93 99 95
158 146 159 140 174 253 344 121 169 203 126 128 130 128 116 113 116 123 125 126 126 124 121 120 117 115 115 122 122 122 128 133 119 110 104 93 84 93 99 95 83 83 99 96
146 175 167 170 201 256 336 72 81 128 123 122 124 124 124 123 126 126 126 127 127 126 125 121 120 115 109 119 129 131 140 130 116 107 100 91 84 75 80 94 93 79 80 93
147 126 106 97 23 32 42 55 70 101 113 121 127 129 130 127 130 128 128 127 124 124 126 125 124 122 119 120 123 132 135 129 119 113 107 106 100 85 71 71 83 92 96 101
168 129 108 110 142 90 49 71 100 99 107 113 115 120 129 129 131 131 130 130 128 126 125 127 129 131 133 133 132 139 138 130 121 119 116 110 105 105 91 75 70 94 105 171
182 162 161 192 188 153 148 128 119 116 120 124 120 114 121 129 130 129 128 128 129 130 129 129 131 132 135 137 141 139 137 134 129 123 122 122 125 125 118 109 69 51 82 95